Wind_Speed
11 12 12 14 12 10 3 8 10 11 11 12 10 6 3 8 9 10 13 11 12 16 13 13 13 15 17 16 13 12 15 12 8 4 6 8 7 4 5 6 6 8 10 10 12
13 13 14 14 17 15 13 14 12 12 13 11 8 4 3 8 9 12 13 11 15 16 16 15 14 12 9 6 13 12 10 10 9 7 6 7 6 7 8 6 6 8 10 14 19
15 15 15 14 15 12 14 15 9 12 11 10 5 2 4 7 9 12 12 13 16 15 15 15 15 13 13 10 8 10 12 9 7 7 6 6 7 9 9 8 10 13 13 13 21
8 14 18 17 17 15 9 9 10 10 10 8 3 1 5 7 8 11 12 15 15 12 12 10 9 8 8 7 6 6 4 6 5 5 6 9 10 11 10 14 17 16 16 18 21
10 10 13 15 20 17 15 10 13 10 10 7 3 4 6 8 8 10 13 15 15 13 10 9 7 5 5 4 4 4 3 7 7 10 11 12 13 13 18 18 16 16 18 22 26
10 10 12 10 14 16 16 15 12 9 8 5 5 6 7 8 6 8 14 17 14 11 9 7 4 1 4 5 9 10 7 8 9 11 14 15 15 16 17 15 17 18 21 22 21
10 8 8 10 13 13 13 13 9 8 5 5 6 8 9 7 7 7 13 14 14 11 8 6 2 3 6 9 13 12 9 11 12 17 18 16 13 15 17 18 15 14 13 17 19
8 6 7 8 7 8 8 6 5 6 4 4 7 8 8 8 8 6 12 11 10 6 7 3 2 6 9 13 12 9 13 16 17 19 18 16 14 14 15 15 11 12 17 21 17
7 5 7 8 6 8 6 3 6 4 4 6 9 10 10 7 8 7 11 11 8 7 5 1 6 11 11 10 13 13 13 19 20 19 18 16 16 17 16 13 13 15 17 17 14
9 8 7 7 5 7 4 5 4 4 6 8 10 11 11 9 8 7 9 12 8 10 6 0 7 8 11 12 6 11 15 18 19 18 17 15 16 16 15 17 18 18 19 17 19
9 10 4 5 5 9 7 5 6 6 7 11 15 15 9 9 10 9 10 11 10 10 6 3 6 5 8 12 13 16 17 18 19 20 18 17 17 18 17 18 19 18 17 18 20
9 9 2 5 9 11 7 13 7 9 8 11 13 13 11 9 8 7 8 11 12 10 8 5 8 8 11 14 18 22 27 24 25 23 19 17 17 19 20 19 17 18 16 21 21
8 6 6 7 12 10 9 11 8 9 10 13 13 14 13 10 8 9 9 10 9 7 4 4 9 10 13 17 23 25 29 33 33 27 21 19 19 21 21 21 21 21 23 24 24
5 4 7 10 14 10 10 12 11 12 14 14 15 15 15 14 13 11 11 11 8 6 3 5 8 11 17 22 24 21 34 38 36 29 19 18 18 21 24 23 24 24 24 25 25
5 6 8 13 13 11 11 12 13 15 11 18 19 18 16 13 9 9 8 8 7 6 6 10 12 18 19 22 28 32 38 40 36 25 23 18 22 28 25 27 26 26 26 25 26
6 10 12 14 12 13 10 14 16 14 14 17 17 14 13 11 10 9 6 6 5 6 10 15 17 18 21 25 31 36 40 38 29 21 18 20 21 31 27 27 28 27 27 26 26
8 12 12 15 15 14 13 11 14 14 13 17 18 16 14 12 9 9 7 5 5 9 15 17 21 22 23 28 35 38 35 19 20 21 19 23 26 25 26 27 27 26 26 26 29
9 13 12 14 15 14 19 18 16 16 16 17 20 20 18 12 8 5 6 7 9 11 13 19 26 26 25 29 38 34 27 23 18 16 19 25 26 25 26 26 25 27 29 31 33
10 15 14 17 14 14 14 18 20 18 15 23 22 21 17 10 8 8 10 13 15 14 15 21 24 26 29 37 34 33 25 23 22 21 18 23 24 28 26 26 29 31 34 34 35
11 15 15 15 13 10 9 16 17 12 14 21 25 19 16 12 12 14 17 17 19 20 20 25 29 28 34 32 27 24 23 21 19 15 13 25 25 29 28 30 32 34 34 36 35
14 16 16 16 13 13 12 16 17 15 14 13 20 19 17 16 19 19 21 21 22 22 24 26 27 34 29 28 25 24 22 19 18 19 19 16 24 27 29 32 33 33 34 34 35
17 17 17 15 15 14 16 14 18 16 18 17 17 19 19 19 21 21 22 25 28 27 28 28 28 29 28 25 23 22 21 21 19 23 21 22 28 29 32 33 33 34 35 36 31
18 17 16 13 13 13 15 18 17 20 17 16 18 17 20 17 19 23 28 31 27 24 27 27 26 27 26 22 19 20 21 20 20 20 21 22 29 31 31 34 36 36 37 31 31
16 16 14 14 11 11 12 16 18 19 12 10 14 12 14 15 20 22 18 19 19 21 23 24 23 23 22 21 21 19 19 18 18 18 22 25 30 30 34 35 36 35 29 30 28
17 17 15 14 11 14 10 14 15 12 10 11 14 14 15 16 18 17 16 16 19 21 22 21 21 20 19 19 18 18 18 19 20 21 21 27 28 32 34 35 35 28 25 28 31
18 20 16 17 11 14 14 15 18 18 18 17 16 21 21 18 17 19 14 16 20 21 20 19 19 18 16 15 13 15 17 18 20 22 23 26 31 32 33 35 30 26 26 31 32
19 21 17 16 12 15 17 15 15 15 12 12 13 15 17 20 17 18 15 17 18 17 17 17 17 17 16 13 13 14 16 19 21 22 25 29 32 34 36 34 27 26 29 33 35
Wind_Direction
213 212 210 223 238 233 300 347 337 330 323 330 329 326 7 62 85 104 115 126 119 117 126 130 116 111 84 75 89 103 84 69 79 97 67 46 38 356 313 298 300 293 280 269 288
231 221 225 227 233 244 263 282 316 324 321 325 322 321 45 78 102 119 125 128 119 118 116 118 127 132 122 106 104 94 91 84 75 59 46 30 26 19 355 325 320 322 292 271 285
236 237 231 236 240 248 254 268 299 310 315 315 312 334 83 101 117 129 136 133 130 129 124 115 107 98 99 118 124 103 95 85 74 61 34 357 332 309 326 327 315 305 305 283 303
272 244 241 238 251 249 240 269 289 306 304 297 294 140 121 123 136 138 141 137 134 138 131 128 111 97 90 91 83 65 62 38 21 21 357 346 343 343 360 341 336 321 308 304 306
291 265 255 251 249 259 251 279 288 291 294 284 251 169 141 133 146 145 136 133 144 146 141 134 121 107 96 73 15 360 350 343 349 338 331 323 324 322 325 329 321 313 308 304 302
304 262 252 265 253 249 246 262 271 284 280 270 228 178 155 149 149 133 138 146 158 157 167 155 178 232 19 340 333 330 310 323 330 326 326 328 323 321 322 321 323 311 307 307 304
303 254 260 245 265 243 239 258 278 276 266 248 220 187 163 147 144 130 127 155 171 172 183 170 187 11 339 330 324 325 332 324 323 324 330 325 323 324 317 317 317 319 323 317 311
304 253 285 240 263 219 237 259 298 289 246 219 202 190 159 153 144 143 140 167 169 171 189 181 345 341 335 330 338 329 318 322 323 327 332 332 329 326 328 326 328 325 320 322 319
318 283 292 241 254 216 226 281 304 289 228 198 190 185 170 163 142 123 150 180 177 187 215 23 360 348 338 353 353 338 334 329 325 326 331 331 337 335 331 322 314 319 315 325 323
324 306 296 229 244 216 176 263 268 227 217 201 189 179 165 160 147 133 160 183 189 194 223 312 21 359 358 13 316 326 338 333 330 329 330 326 330 331 317 306 303 308 309 308 309
318 313 310 195 211 175 204 215 204 212 208 203 189 177 173 142 141 155 168 195 200 207 241 331 25 287 309 346 353 347 342 338 335 337 329 322 326 327 316 312 309 311 306 300 301
307 299 218 198 196 186 224 217 212 198 196 200 196 174 151 154 154 172 194 198 205 216 249 334 311 308 336 347 353 350 350 346 345 337 325 315 320 319 321 318 319 318 311 306 306
286 277 193 208 193 199 209 193 206 177 175 189 190 172 173 173 179 185 203 201 201 209 257 311 275 331 343 348 352 337 348 341 341 334 328 318 313 316 316 317 320 318 316 312 310
266 232 204 215 197 209 212 186 198 170 160 176 179 180 180 183 197 213 206 207 203 218 246 290 319 344 345 339 346 344 334 335 335 329 317 319 304 312 315 316 316 318 317 315 307
231 195 201 193 201 193 187 183 194 177 169 184 183 182 183 191 208 227 202 209 203 228 295 275 334 339 336 334 337 333 331 330 327 322 318 315 310 310 317 318 318 318 316 312 307
207 181 188 194 200 196 192 187 187 186 203 189 182 177 173 178 193 190 169 186 213 274 301 301 313 328 325 330 332 330 326 325 319 309 310 308 316 307 317 317 318 319 318 314 309
209 184 195 207 201 197 194 190 192 194 196 186 178 176 169 189 198 183 197 217 275 303 311 314 309 318 323 326 330 326 322 326 318 318 296 309 309 310 311 315 317 318 315 309 302
214 189 201 202 206 229 231 213 210 203 200 196 185 175 189 204 221 237 247 290 304 298 289 298 308 318 321 325 321 320 313 310 294 285 279 303 305 315 313 313 314 314 310 309 306
217 194 203 217 244 214 214 210 205 203 194 198 192 192 208 221 241 262 277 282 283 278 277 294 301 312 318 315 314 310 311 307 301 300 299 287 310 309 313 315 318 315 312 310 309
209 201 212 222 198 220 205 203 198 208 212 205 207 211 219 229 250 263 266 272 275 281 294 301 303 312 309 309 308 305 306 304 303 306 299 297 308 312 320 319 316 314 312 312 311
200 202 212 222 220 219 205 198 200 196 206 199 208 213 227 242 252 264 281 293 293 295 298 302 304 304 305 307 306 311 311 309 307 303 300 297 299 315 316 315 315 314 313 310 306
195 210 219 225 226 219 184 202 215 203 209 210 210 223 237 251 269 277 288 299 302 297 297 301 301 300 302 305 307 307 309 309 306 302 307 307 304 315 315 316 317 317 314 313 317
199 212 219 221 218 208 212 209 211 203 214 223 224 235 244 273 295 286 290 294 292 294 295 297 299 302 303 303 307 310 307 307 309 313 312 313 306 314 317 320 320 320 317 320 320
205 209 220 217 210 202 211 223 227 251 203 231 267 227 245 277 292 298 290 292 291 289 290 298 300 299 300 303 308 309 310 314 318 320 316 315 315 321 323 322 322 319 319 321 321
205 210 216 212 195 183 219 216 227 240 250 261 270 277 280 280 305 301 294 299 297 294 298 299 300 301 303 307 307 310 316 321 325 324 321 318 320 322 322 324 322 320 325 324 322
210 212 211 197 193 195 198 218 230 242 246 259 269 276 277 275 295 307 298 299 295 298 300 302 302 304 312 315 314 314 315 320 323 322 320 322 323 323 326 326 321 322 321 324 326
215 210 209 199 204 205 208 220 233 235 257 269 269 277 273 277 279 298 299 298 299 302 305 305 308 316 320 323 321 312 322 326 326 325 327 327 327 329 329 326 324 326 324 325 325
Height
5899 5900 5900 5900 5901 5901 5901 5901 5900 5898 5897 5896 5896 5896 5896 5895 5897 5899 5900 5900 5900 5901 5903 5905 5906 5906 5906 5906 5905 5905 5905 5904 5903 5902 5901 5900 5898 5896 5896 5894 5892 5891 5890 5888 5886
5897 5898 5898 5899 5899 5900 5900 5899 5899 5897 5896 5896 5895 5896 5895 5896 5898 5900 5900 5901 5901 5903 5905 5906 5907 5906 5907 5908 5908 5906 5909 5906 5905 5904 5903 5901 5899 5897 5896 5893 5891 5889 5887 5886 5884
5895 5896 5896 5896 5897 5898 5899 5899 5898 5897 5895 5895 5895 5895 5895 5897 5899 5901 5901 5901 5902 5905 5906 5907 5908 5910 5910 5909 5908 5907 5908 5907 5905 5904 5903 5901 5899 5897 5895 5892 5890 5887 5885 5882 5880
5892 5893 5894 5895 5895 5896 5897 5897 5897 5896 5895 5894 5894 5894 5895 5898 5901 5901 5901 5902 5904 5907 5907 5908 5910 5911 5911 5911 5910 5909 5908 5906 5905 5903 5901 5899 5897 5895 5893 5891 5887 5884 5881 5878 5875
5891 5890 5891 5892 5893 5894 5895 5896 5896 5896 5894 5893 5893 5894 5895 5898 5900 5901 5902 5903 5906 5907 5908 5908 5910 5911 5911 5910 5910 5909 5907 5905 5904 5901 5899 5896 5894 5892 5889 5886 5883 5880 5876 5874 5870
5889 5889 5889 5889 5890 5891 5893 5894 5894 5894 5894 5893 5893 5894 5896 5898 5900 5901 5904 5904 5907 5908 5909 5909 5911 5911 5911 5910 5909 5908 5906 5904 5902 5899 5897 5894 5892 5889 5886 5883 5880 5877 5873 5869 5866
5887 5887 5887 5888 5888 5888 5890 5892 5892 5892 5892 5892 5893 5895 5896 5898 5900 5901 5904 5905 5907 5909 5910 5910 5911 5911 5910 5909 5908 5906 5905 5902 5900 5897 5894 5891 5889 5886 5883 5879 5875 5873 5870 5866 5862
5885 5885 5885 5886 5886 5887 5889 5890 5891 5890 5891 5891 5893 5895 5896 5897 5900 5901 5903 5905 5907 5909 5909 5910 5910 5910 5910 5908 5906 5905 5902 5900 5897 5894 5891 5889 5886 5882 5878 5874 5871 5869 5866 5862 5859
5884 5884 5884 5885 5885 5886 5888 5889 5889 5888 5889 5890 5893 5895 5896 5898 5900 5901 5903 5905 5907 5909 5909 5910 5910 5910 5909 5908 5907 5904 5905 5898 5895 5891 5888 5885 5882 5878 5874 5870 5868 5865 5862 5859 5855
5883 5883 5883 5883 5884 5885 5886 5887 5887 5888 5888 5890 5892 5895 5896 5899 5900 5902 5904 5906 5908 5909 5910 5910 5911 5910 5908 5909 5912 5906 5902 5896 5893 5889 5886 5882 5879 5875 5871 5868 5864 5861 5858 5855 5852
5882 5881 5881 5882 5883 5884 5885 5886 5888 5888 5887 5889 5891 5893 5897 5899 5900 5902 5904 5905 5907 5909 5910 5910 5912 5915 5909 5906 5904 5901 5898 5895 5891 5886 5882 5878 5875 5872 5868 5864 5860 5856 5853 5850 5847
5880 5880 5880 5881 5881 5882 5883 5884 5885 5886 5887 5888 5890 5893 5896 5898 5901 5902 5904 5906 5907 5909 5910 5911 5913 5908 5905 5903 5900 5897 5893 5889 5886 5883 5879 5875 5871 5868 5863 5860 5856 5852 5849 5845 5841
5878 5879 5879 5880 5880 5881 5881 5882 5884 5884 5886 5888 5890 5892 5896 5899 5900 5902 5904 5905 5906 5908 5909 5909 5909 5904 5902 5900 5897 5893 5891 5887 5883 5878 5875 5871 5868 5864 5860 5855 5852 5848 5844 5840 5836
5875 5876 5877 5878 5880 5879 5880 5881 5883 5884 5886 5889 5890 5892 5894 5897 5900 5901 5902 5905 5906 5907 5907 5907 5905 5903 5900 5897 5895 5894 5888 5882 5878 5874 5872 5868 5866 5861 5856 5852 5848 5843 5839 5835 5831
5873 5874 5875 5876 5877 5879 5880 5880 5883 5884 5888 5889 5889 5890 5893 5897 5900 5900 5901 5902 5904 5905 5906 5906 5902 5900 5898 5896 5892 5888 5883 5878 5873 5869 5867 5865 5862 5853 5852 5846 5843 5839 5834 5830 5825
5871 5873 5875 5875 5876 5878 5879 5880 5883 5886 5886 5888 5889 5891 5893 5896 5898 5899 5899 5902 5903 5903 5903 5901 5899 5898 5895 5891 5887 5882 5877 5873 5868 5865 5863 5861 5858 5849 5847 5843 5838 5834 5829 5825 5820
5870 5872 5873 5874 5876 5877 5878 5881 5884 5885 5888 5889 5889 5891 5894 5896 5897 5898 5900 5901 5902 5902 5900 5897 5894 5893 5890 5886 5883 5878 5873 5872 5871 5867 5865 5857 5852 5847 5843 5838 5834 5830 5824 5819 5814
5868 5870 5872 5873 5874 5876 5878 5881 5882 5884 5886 5888 5889 5891 5894 5896 5897 5898 5899 5900 5899 5899 5898 5896 5891 5887 5886 5883 5880 5873 5870 5868 5864 5864 5862 5851 5847 5842 5838 5834 5829 5824 5819 5813 5807
5866 5869 5871 5872 5873 5874 5877 5879 5880 5883 5885 5887 5890 5891 5894 5896 5897 5898 5898 5897 5896 5895 5895 5892 5887 5884 5880 5876 5875 5867 5865 5862 5858 5855 5852 5846 5842 5837 5833 5828 5824 5818 5812 5806 5800
5865 5867 5868 5870 5871 5873 5875 5877 5880 5882 5884 5887 5889 5892 5893 5894 5896 5896 5895 5894 5892 5891 5889 5885 5882 5880 5874 5872 5868 5864 5861 5858 5854 5852 5851 5841 5837 5830 5827 5822 5817 5811 5804 5798 5791
5862 5865 5866 5868 5871 5872 5874 5877 5879 5882 5884 5886 5888 5891 5892 5893 5893 5893 5891 5891 5889 5886 5883 5880 5880 5872 5870 5867 5862 5858 5855 5853 5850 5847 5844 5841 5833 5828 5823 5817 5811 5805 5799 5793 5785
5860 5863 5864 5866 5870 5871 5873 5876 5878 5880 5883 5885 5887 5889 5890 5891 5890 5888 5886 5884 5882 5879 5877 5875 5872 5869 5865 5861 5857 5854 5851 5848 5845 5841 5838 5834 5829 5823 5818 5812 5806 5799 5792 5784 5777
5859 5860 5862 5864 5867 5870 5872 5874 5876 5877 5880 5883 5885 5886 5887 5886 5885 5882 5880 5878 5876 5873 5871 5869 5867 5863 5859 5857 5853 5850 5847 5844 5841 5837 5833 5830 5823 5817 5812 5805 5798 5791 5783 5776 5771
5857 5859 5861 5863 5866 5868 5870 5873 5875 5874 5873 5875 5878 5880 5881 5881 5879 5876 5874 5872 5869 5868 5866 5864 5862 5860 5856 5853 5849 5846 5843 5839 5836 5833 5828 5823 5816 5812 5805 5799 5791 5784 5777 5771 5766
5855 5857 5858 5861 5863 5866 5868 5870 5873 5873 5875 5877 5878 5877 5876 5876 5874 5872 5869 5866 5865 5863 5861 5859 5856 5854 5851 5848 5844 5841 5838 5834 5830 5827 5823 5817 5813 5806 5799 5792 5785 5778 5772 5767 5761
5852 5854 5856 5859 5862 5864 5866 5868 5870 5872 5874 5874 5874 5873 5872 5872 5871 5868 5864 5862 5861 5858 5856 5854 5852 5849 5846 5843 5839 5836 5833 5830 5827 5822 5818 5813 5807 5801 5793 5786 5778 5772 5767 5761 5755
5847 5850 5853 5856 5859 5861 5863 5866 5868 5870 5871 5871 5870 5869 5867 5867 5866 5864 5861 5859 5857 5854 5852 5850 5847 5844 5841 5839 5836 5834 5831 5826 5822 5817 5812 5806 5800 5793 5786 5779 5772 5767 5761 5755 5748